Погода в Воробьёвым

Россия / Вологодская область     59°37′37″N   40°53′20″E
темп.,
°C
ветер,
м/с
пор.,
м/с
влажн.,
%
обл.,
%
осадки,
мм/ч
давл.,
гПа
погр.,
м
14 июня, пн
пн1400:00+14юз229620 0.1 100828
03:00+13юз239712 0.1 100952
06:00+15юз259218 0.0 1010160
09:00+21зюз356382 0.0 1011590
12:00+24зюз36457 0.0 10111757
15:00+17сз4889100 1.3 1012291
18:00+19зюз248782 3.2 1012314
21:00+15с229485 4.6 101441
15 июня, вт
вт1500:00+12ссз2394100 0.0 101549
03:00+10с11895 0.0 101510
06:00+14в00874 0.0 101580
09:00+20ю23602 0.0 1013910
12:00+23юз344515 0.0 10111775
15:00+24юз45395 0.0 10102077
18:00+23юз364899 0.0 10081714
21:00+17юз237737 0.0 100842
16 июня, ср
ср1600:00+15юз25896 0.0 100888
03:00+13зсз379543 0.0 1008168
06:00+14ссз386985 0.0 1009344
09:00+13зсз3781100 0.1 1011500
12:00+20сз473719 0.3 10102502
15:00+21сз692881 0.3 10113169
18:00+19сз483853 0.0 10122688
21:00+13зсз396198 0.0 1014215
17 июня, чт
чт1700:00+10зсз39685 0.0 1016167
03:00+8зсз39740 0.0 1018167
06:00+12зсз39610 0.0 1019293
09:00+17сз48430 0.0 10201497
12:00+20сз583412 0.0 10202247
15:00+21сз583421 0.0 10202500
18:00+21сз47426 0.0 10211757
21:00+14сз22660 0.0 102219
18 июня, пт
пт1800:00+12сз11700 0.0 102410
03:00+11зюз11725 0.0 102410
06:00+14юз247076 0.0 1025146
09:00+20зюз35475 0.0 1024793
12:00+24з4638100 0.0 10231530
15:00+26з473723 0.0 10222063
18:00+24зюз37495 0.0 1021982
21:00+18зюз23775 0.0 102144